Location: Arcizac
(43.0933°N, 0.0112°E)
Time: 02:18:37
(UTC+00:00)

Lacrosse 5 - Pass Details

Date: 14 December 2019
Orbit: 717 x 722 km, 57.0° (Epoch: 10 January)

Event Time Altitude Azimuth Distance (km) Brightness Sun altitude
Rises 17:29:41 0° 191° (S) 3,108 5.6 -11.3°
Reaches altitude 10° 17:32:22 10° 178° (S) 2,192 4.6 -11.8°
Maximum altitude 17:36:30 26° 123° (ESE) 1,401 3.1 -12.5°
Enters shadow 17:38:57 18° 83° (E) 1,728 3.2 -12.9°
